Time,TemperatureF,DewpointF,PressureIn,WindDirection,WindDirectionDegrees,WindSpeedMPH,WindSpeedGustMPH,Humidity,HourlyPrecipIn,Conditions,Clouds,dailyrainin,SoftwareType,DateUTC
2013-02-11 00:00:00,28.8,19.2,30.32,SSE,156,0.0,0.0,67,0.00,,---,0.20,VWS V14.01,2013-02-11 05:00:00,
2013-02-11 00:01:00,28.8,19.2,30.32,SSE,156,0.0,0.0,67,0.00,,---,0.00,VWS V14.01,2013-02-11 05:01:00,
2013-02-11 00:02:00,28.8,19.2,30.32,SSE,156,0.0,0.0,67,0.00,,---,0.00,VWS V14.01,2013-02-11 05:02:00,
2013-02-11 00:07:00,28.9,19.3,30.32,SSE,157,2.0,4.0,67,0.00,,---,0.00,VWS V14.01,2013-02-11 05:07:00,
2013-02-11 00:12:00,28.9,19.3,30.32,SSE,157,0.0,4.0,67,0.00,,---,0.00,VWS V14.01,2013-02-11 05:12:00,
2013-02-11 00:15:00,29.0,19.4,30.28,SSE,153,0.0,1.0,67,0.00,,---,0.00,VWS V14.01,2013-02-11 05:15:00,
2013-02-11 00:17:00,28.9,19.3,30.32,SSE,157,2.0,2.0,67,0.00,,---,0.00,VWS V14.01,2013-02-11 05:17:00,
2013-02-11 00:22:00,28.9,19.3,30.31,SSE,157,3.0,3.0,67,0.00,,---,0.00,VWS V14.01,2013-02-11 05:22:00,
2013-02-11 00:27:00,29.0,19.4,30.31,SSE,155,3.0,4.0,67,0.00,,---,0.00,VWS V14.01,2013-02-11 05:27:00,
2013-02-11 00:30:00,28.9,19.7,30.28,SSE,159,0.0,2.0,68,0.00,,---,0.00,VWS V14.01,2013-02-11 05:30:00,
2013-02-11 00:32:00,29.0,19.4,30.31,SSE,150,0.0,4.0,67,0.00,,---,0.00,VWS V14.01,2013-02-11 05:32:00,
2013-02-11 00:37:00,29.0,19.4,30.30,SSE,148,0.0,5.0,67,0.00,,---,0.00,VWS V14.01,2013-02-11 05:37:00,
2013-02-11 00:43:00,29.0,19.4,30.30,SSE,148,2.0,5.0,67,0.00,,---,0.00,VWS V14.01,2013-02-11 05:43:00,
2013-02-11 00:45:00,29.0,19.8,30.28,SSE,159,0.0,1.0,68,0.00,,---,0.00,VWS V14.01,2013-02-11 05:45:00,
2013-02-11 00:48:00,29.0,19.4,30.29,SSE,153,3.0,3.0,67,0.00,,---,0.00,VWS V14.01,2013-02-11 05:48:00,
2013-02-11 00:53:00,29.0,19.4,30.29,SSE,157,1.0,3.0,67,0.00,,---,0.00,VWS V14.01,2013-02-11 05:53:00,
2013-02-11 00:58:00,29.0,19.4,30.29,SSE,153,0.0,4.0,67,0.00,,---,0.00,VWS V14.01,2013-02-11 05:58:00,
2013-02-11 01:00:00,29.3,20.4,30.27,SSE,159,0.0,2.0,69,0.00,,---,0.00,VWS V14.01,2013-02-11 06:00:00,
2013-02-11 01:03:00,29.1,19.5,30.28,SSE,153,0.0,0.0,67,0.00,,---,0.00,VWS V14.01,2013-02-11 06:03:00,
2013-02-11 01:08:00,29.1,19.5,30.28,SSE,153,0.0,0.0,67,0.00,,---,0.00,VWS V14.01,2013-02-11 06:08:00,
2013-02-11 01:13:00,29.0,19.4,30.29,SSE,153,0.0,0.0,67,0.00,,---,0.00,VWS V14.01,2013-02-11 06:13:00,
2013-02-11 01:15:00,29.4,20.8,30.25,SSE,159,1.0,2.0,70,0.00,,---,0.00,VWS V14.01,2013-02-11 06:15:00,
2013-02-11 01:18:00,29.0,19.4,30.28,SSE,153,0.0,0.0,67,0.00,,---,0.00,VWS V14.01,2013-02-11 06:18:00,
2013-02-11 01:23:00,29.0,19.4,30.28,SSE,158,0.0,2.0,67,0.00,,---,0.00,VWS V14.01,2013-02-11 06:23:00,
2013-02-11 01:28:00,28.9,19.7,30.28,SSE,159,0.0,2.0,68,0.00,,---,0.00,VWS V14.01,2013-02-11 06:28:00,
2013-02-11 01:30:00,29.4,20.8,30.25,SSE,159,0.0,1.0,70,0.00,,---,0.00,VWS V14.01,2013-02-11 06:30:00,
2013-02-11 01:33:00,28.9,19.7,30.28,SSE,158,0.0,0.0,68,0.00,,---,0.00,VWS V14.01,2013-02-11 06:33:00,
2013-02-11 01:38:00,28.9,19.7,30.29,SSE,159,0.0,1.0,68,0.00,,---,0.00,VWS V14.01,2013-02-11 06:38:00,
2013-02-11 01:43:00,29.0,19.8,30.28,SSE,159,0.0,1.0,68,0.00,,---,0.00,VWS V14.01,2013-02-11 06:43:00,
2013-02-11 01:45:00,29.2,21.0,30.25,SSE,159,0.0,0.0,71,0.00,,---,0.00,VWS V14.01,2013-02-11 06:45:00,
2013-02-11 01:49:00,29.1,20.2,30.28,SSE,159,0.0,0.0,69,0.00,,---,0.00,VWS V14.01,2013-02-11 06:49:00,
2013-02-11 01:54:00,29.2,20.3,30.27,SSE,159,0.0,0.0,69,0.00,,---,0.00,VWS V14.01,2013-02-11 06:54:00,
2013-02-11 01:59:00,29.3,20.4,30.27,SSE,159,1.0,2.0,69,0.00,,---,0.00,VWS V14.01,2013-02-11 06:59:00,
2013-02-11 02:00:00,29.2,21.0,30.23,SSE,159,0.0,0.0,71,0.00,,---,0.00,VWS V14.01,2013-02-11 07:00:00,
2013-02-11 02:04:00,29.4,20.5,30.26,SSE,159,0.0,0.0,69,0.00,,---,0.00,VWS V14.01,2013-02-11 07:04:00,
2013-02-11 02:09:00,29.3,20.4,30.26,SSE,159,0.0,0.0,69,0.00,,---,0.00,VWS V14.01,2013-02-11 07:09:00,
2013-02-11 02:14:00,29.3,20.7,30.25,SSE,159,0.0,0.0,70,0.00,,---,0.00,VWS V14.01,2013-02-11 07:14:00,
2013-02-11 02:15:00,29.6,22.0,30.22,SSE,159,0.0,0.0,73,0.00,,---,0.00,VWS V14.01,2013-02-11 07:15:00,
2013-02-11 02:19:00,29.5,20.9,30.25,SSE,159,0.0,1.0,70,0.00,,---,0.00,VWS V14.01,2013-02-11 07:19:00,
2013-02-11 02:24:00,29.5,20.9,30.25,SSE,159,0.0,1.0,70,0.00,,---,0.00,VWS V14.01,2013-02-11 07:24:00,
2013-02-11 02:29:00,29.4,20.8,30.26,SSE,159,0.0,1.0,70,0.00,,---,0.00,VWS V14.01,2013-02-11 07:29:00,
2013-02-11 02:30:00,29.3,21.7,30.22,SSE,159,0.0,0.0,73,0.00,,---,0.00,VWS V14.01,2013-02-11 07:30:00,
2013-02-11 02:34:00,29.3,20.7,30.25,SSE,159,0.0,0.0,70,0.00,,---,0.00,VWS V14.01,2013-02-11 07:34:00,
2013-02-11 02:39:00,29.2,20.6,30.25,SSE,159,0.0,0.0,70,0.00,,---,0.00,VWS V14.01,2013-02-11 07:39:00,
2013-02-11 02:44:00,29.2,21.0,30.25,SSE,159,0.0,0.0,71,0.00,,---,0.00,VWS V14.01,2013-02-11 07:44:00,
2013-02-11 02:45:00,29.7,22.4,30.21,SSE,154,0.0,2.0,74,0.00,,---,0.00,VWS V14.01,2013-02-11 07:45:00,
2013-02-11 02:49:00,29.2,21.0,30.25,SSE,159,0.0,0.0,71,0.00,,---,0.00,VWS V14.01,2013-02-11 07:49:00,
2013-02-11 02:54:00,29.2,21.0,30.24,SSE,159,0.0,0.0,71,0.00,,---,0.00,VWS V14.01,2013-02-11 07:54:00,
2013-02-11 03:00:00,29.1,20.9,30.23,SSE,159,0.0,0.0,71,0.00,,---,0.00,VWS V14.01,2013-02-11 08:00:00,
2013-02-11 03:05:00,29.3,21.4,30.23,SSE,159,0.0,0.0,72,0.00,,---,0.00,VWS V14.01,2013-02-11 08:05:00,
2013-02-11 03:10:00,29.4,21.5,30.23,SSE,159,0.0,0.0,72,0.00,,---,0.00,VWS V14.01,2013-02-11 08:10:00,
2013-02-11 03:15:00,29.6,22.0,30.22,SSE,159,0.0,0.0,73,0.00,,---,0.00,VWS V14.01,2013-02-11 08:15:00,
2013-02-11 03:20:00,29.7,22.1,30.23,SSE,159,0.0,0.0,73,0.00,,---,0.00,VWS V14.01,2013-02-11 08:20:00,
2013-02-11 03:25:00,29.3,21.7,30.22,SSE,159,0.0,0.0,73,0.00,,---,0.00,VWS V14.01,2013-02-11 08:25:00,
2013-02-11 03:30:00,29.3,21.7,30.22,SSE,159,0.0,0.0,73,0.00,,---,0.00,VWS V14.01,2013-02-11 08:30:00,
2013-02-11 03:35:00,29.3,22.1,30.21,SSE,159,0.0,0.0,74,0.00,,---,0.00,VWS V14.01,2013-02-11 08:35:00,
2013-02-11 03:40:00,29.5,22.2,30.21,SSE,159,0.0,1.0,74,0.00,,---,0.00,VWS V14.01,2013-02-11 08:40:00,
2013-02-11 03:45:00,29.7,22.4,30.21,SSE,154,0.0,2.0,74,0.00,,---,0.00,VWS V14.01,2013-02-11 08:45:00,
2013-02-11 03:50:00,29.8,22.5,30.20,SSE,154,0.0,2.0,74,0.00,,---,0.00,VWS V14.01,2013-02-11 08:50:00,
2013-02-11 03:55:00,30.0,22.4,30.19,SSE,154,0.0,2.0,73,0.00,,---,0.00,VWS V14.01,2013-02-11 08:55:00,
2013-02-11 04:00:00,30.1,22.8,30.19,SSE,154,0.0,2.0,74,0.00,,---,0.00,VWS V14.01,2013-02-11 09:00:00,
2013-02-11 04:05:00,30.2,22.9,30.18,SSE,154,0.0,0.0,74,0.00,,---,0.00,VWS V14.01,2013-02-11 09:05:00,
2013-02-11 04:10:00,30.3,23.0,30.19,SSE,154,0.0,0.0,74,0.00,,---,0.00,VWS V14.01,2013-02-11 09:10:00,
2013-02-11 04:15:00,30.3,23.0,30.19,SSE,154,0.0,0.0,74,0.00,,---,0.00,VWS V14.01,2013-02-11 09:15:00,
2013-02-11 04:20:00,30.4,23.1,30.19,SSE,154,0.0,0.0,74,0.00,,---,0.00,VWS V14.01,2013-02-11 09:20:00,
2013-02-11 04:25:00,30.5,23.2,30.19,SSE,154,0.0,0.0,74,0.00,,---,0.00,VWS V14.01,2013-02-11 09:25:00,
2013-02-11 04:30:00,30.8,24.1,30.14,ESE,115,0.0,4.0,76,0.00,,---,0.00,VWS V14.01,2013-02-11 09:30:00,
2013-02-11 04:31:00,30.6,23.3,30.18,SSE,154,0.0,0.0,74,0.00,,---,0.00,VWS V14.01,2013-02-11 09:31:00,
2013-02-11 04:36:00,30.6,23.3,30.18,SSE,154,0.0,0.0,74,0.00,,---,0.00,VWS V14.01,2013-02-11 09:36:00,
2013-02-11 04:41:00,30.7,23.4,30.18,SSE,154,0.0,1.0,74,0.00,,---,0.00,VWS V14.01,2013-02-11 09:41:00,
2013-02-11 04:45:00,31.1,25.1,30.14,ESE,115,0.0,3.0,78,0.00,,---,0.00,VWS V14.01,2013-02-11 09:45:00,
2013-02-11 04:46:00,30.8,23.5,30.17,SE,134,2.0,4.0,74,0.00,,---,0.00,VWS V14.01,2013-02-11 09:46:00,
2013-02-11 04:51:00,30.8,23.5,30.17,SE,130,2.0,4.0,74,0.00,,---,0.00,VWS V14.01,2013-02-11 09:51:00,
2013-02-11 04:56:00,30.7,23.4,30.16,SE,129,2.0,4.0,74,0.00,,---,0.00,VWS V14.01,2013-02-11 09:56:00,
2013-02-11 05:00:00,31.0,25.3,30.13,ESE,115,0.0,1.0,79,0.00,,---,0.00,VWS V14.01,2013-02-11 10:00:00,
2013-02-11 05:01:00,30.7,23.4,30.16,SE,129,0.0,0.0,74,0.00,,---,0.00,VWS V14.01,2013-02-11 10:01:00,
2013-02-11 05:06:00,30.7,23.7,30.15,SE,129,0.0,0.0,75,0.00,,---,0.00,VWS V14.01,2013-02-11 10:06:00,
2013-02-11 05:11:00,30.7,23.7,30.16,SE,129,0.0,3.0,75,0.00,,---,0.00,VWS V14.01,2013-02-11 10:11:00,
2013-02-11 05:15:00,31.3,26.2,30.12,ESE,115,0.0,3.0,81,0.00,,---,0.00,VWS V14.01,2013-02-11 10:15:00,
2013-02-11 05:16:00,30.7,24.0,30.15,SE,129,0.0,1.0,76,0.00,,---,0.00,VWS V14.01,2013-02-11 10:16:00,
2013-02-11 05:21:00,30.7,24.0,30.15,SE,129,0.0,1.0,76,0.00,,---,0.00,VWS V14.01,2013-02-11 10:21:00,
2013-02-11 05:26:00,30.8,24.1,30.15,ESE,115,3.0,4.0,76,0.00,,---,0.00,VWS V14.01,2013-02-11 10:26:00,
2013-02-11 05:30:00,31.6,26.8,30.11,ESE,115,0.0,1.0,82,0.00,,---,0.00,VWS V14.01,2013-02-11 10:30:00,
2013-02-11 05:31:00,30.8,24.5,30.14,ESE,115,0.0,0.0,77,0.00,,---,0.00,VWS V14.01,2013-02-11 10:31:00,
2013-02-11 05:36:00,31.0,24.6,30.15,ESE,115,0.0,0.0,77,0.00,,---,0.00,VWS V14.01,2013-02-11 10:36:00,
2013-02-11 05:41:00,31.1,24.8,30.14,ESE,115,1.0,3.0,77,0.00,,---,0.00,VWS V14.01,2013-02-11 10:41:00,
2013-02-11 05:45:00,31.8,27.2,30.09,ESE,115,0.0,3.0,83,0.00,,---,0.00,VWS V14.01,2013-02-11 10:45:00,
2013-02-11 05:46:00,31.0,25.0,30.14,ESE,115,0.0,0.0,78,0.00,,---,0.00,VWS V14.01,2013-02-11 10:46:00,
2013-02-11 05:51:00,31.0,25.0,30.14,ESE,115,0.0,0.0,78,0.00,,---,0.00,VWS V14.01,2013-02-11 10:51:00,
2013-02-11 05:56:00,31.0,25.3,30.14,ESE,115,0.0,1.0,79,0.00,,---,0.00,VWS V14.01,2013-02-11 10:56:00,
2013-02-11 06:00:00,32.3,28.0,30.07,ENE,69,0.0,5.0,84,0.00,,---,0.00,VWS V14.01,2013-02-11 11:00:00,
2013-02-11 06:02:00,31.1,25.4,30.13,ESE,115,1.0,1.0,79,0.00,,---,0.00,VWS V14.01,2013-02-11 11:02:00,
2013-02-11 06:07:00,31.2,25.8,30.13,ESE,115,0.0,2.0,80,0.00,,---,0.00,VWS V14.01,2013-02-11 11:07:00,
2013-02-11 06:12:00,31.2,25.8,30.12,ESE,115,0.0,2.0,80,0.00,,---,0.00,VWS V14.01,2013-02-11 11:12:00,
2013-02-11 06:15:00,32.2,28.2,30.06,ENE,69,0.0,3.0,85,0.00,,---,0.00,VWS V14.01,2013-02-11 11:15:00,
2013-02-11 06:17:00,31.3,26.2,30.12,ESE,115,0.0,0.0,81,0.00,,---,0.00,VWS V14.01,2013-02-11 11:17:00,
2013-02-11 06:22:00,31.3,26.2,30.12,ESE,115,0.0,1.0,81,0.00,,---,0.00,VWS V14.01,2013-02-11 11:22:00,
2013-02-11 06:27:00,31.5,26.6,30.11,ESE,115,0.0,1.0,82,0.00,,---,0.00,VWS V14.01,2013-02-11 11:27:00,
2013-02-11 06:30:00,32.8,29.1,30.04,ESE,117,1.0,5.0,86,0.00,,---,0.00,VWS V14.01,2013-02-11 11:30:00,
2013-02-11 06:32:00,31.6,26.8,30.11,ESE,115,0.0,0.0,82,0.00,,---,0.00,VWS V14.01,2013-02-11 11:32:00,
2013-02-11 06:37:00,31.7,27.1,30.10,ESE,115,3.0,3.0,83,0.00,,---,0.00,VWS V14.01,2013-02-11 11:37:00,
2013-02-11 06:42:00,31.7,27.1,30.10,ESE,115,0.0,3.0,83,0.00,,---,0.00,VWS V14.01,2013-02-11 11:42:00,
2013-02-11 06:45:00,33.0,29.3,30.04,ENE,73,0.0,6.0,86,0.00,,---,0.00,VWS V14.01,2013-02-11 11:45:00,
2013-02-11 06:47:00,31.8,27.2,30.09,ESE,115,0.0,1.0,83,0.00,,---,0.00,VWS V14.01,2013-02-11 11:47:00,
2013-02-11 06:52:00,32.0,27.7,30.08,ESE,115,3.0,4.0,84,0.00,,---,0.00,VWS V14.01,2013-02-11 11:52:00,
2013-02-11 06:57:00,32.2,27.9,30.07,ENE,69,1.0,5.0,84,0.00,,---,0.00,VWS V14.01,2013-02-11 11:57:00,
2013-02-11 07:00:00,33.0,29.6,30.03,ENE,73,0.0,2.0,87,0.00,,---,0.00,VWS V14.01,2013-02-11 12:00:00,
2013-02-11 07:02:00,32.3,28.0,30.07,ENE,69,0.0,0.0,84,0.00,,---,0.00,VWS V14.01,2013-02-11 12:02:00,
2013-02-11 07:07:00,32.3,28.3,30.07,ENE,69,0.0,3.0,85,0.00,,---,0.00,VWS V14.01,2013-02-11 12:07:00,
2013-02-11 07:12:00,32.2,28.2,30.07,ENE,69,0.0,3.0,85,0.00,,---,0.00,VWS V14.01,2013-02-11 12:12:00,
2013-02-11 07:15:00,33.0,29.6,30.02,ENE,73,0.0,1.0,87,0.01,,---,0.01,VWS V14.01,2013-02-11 12:15:00,
2013-02-11 07:17:00,32.3,28.3,30.06,ENE,69,2.0,2.0,85,0.00,,---,0.00,VWS V14.01,2013-02-11 12:17:00,
2013-02-11 07:22:00,32.5,28.5,30.05,East,87,2.0,5.0,85,0.00,,---,0.00,VWS V14.01,2013-02-11 12:22:00,
2013-02-11 07:27:00,32.7,29.0,30.05,East,93,3.0,5.0,86,0.00,,---,0.00,VWS V14.01,2013-02-11 12:27:00,
2013-02-11 07:30:00,33.4,30.2,30.02,ENE,70,1.0,3.0,88,0.01,,---,0.01,VWS V14.01,2013-02-11 12:30:00,
2013-02-11 07:33:00,32.9,29.2,30.04,ENE,73,4.0,6.0,86,0.00,,---,0.00,VWS V14.01,2013-02-11 12:33:00,
2013-02-11 07:38:00,32.9,29.2,30.04,ENE,73,0.0,6.0,86,0.00,,---,0.00,VWS V14.01,2013-02-11 12:38:00,
2013-02-11 07:43:00,32.9,29.2,30.04,ENE,73,2.0,6.0,86,0.00,,---,0.00,VWS V14.01,2013-02-11 12:43:00,
2013-02-11 07:45:00,34.0,30.8,30.01,NNE,19,1.0,4.0,88,0.01,,---,0.01,VWS V14.01,2013-02-11 12:45:00,
2013-02-11 07:48:00,33.1,29.4,30.04,ENE,73,0.0,2.0,86,0.00,,---,0.00,VWS V14.01,2013-02-11 12:48:00,
2013-02-11 07:53:00,33.0,29.3,30.04,ENE,73,0.0,2.0,86,0.00,,---,0.00,VWS V14.01,2013-02-11 12:53:00,
2013-02-11 07:58:00,33.0,29.6,30.03,ENE,73,0.0,2.0,87,0.00,,---,0.00,VWS V14.01,2013-02-11 12:58:00,
2013-02-11 08:00:00,34.3,31.1,30.00,NNE,19,0.0,1.0,88,0.03,,---,0.03,VWS V14.01,2013-02-11 13:00:00,
2013-02-11 08:03:00,33.0,29.6,30.03,ENE,73,0.0,0.0,87,0.00,,---,0.00,VWS V14.01,2013-02-11 13:03:00,
2013-02-11 08:08:00,33.0,29.6,30.02,ENE,73,0.0,1.0,87,0.00,,---,0.00,VWS V14.01,2013-02-11 13:08:00,
2013-02-11 08:13:00,33.1,29.7,30.02,ENE,73,0.0,1.0,87,0.00,,---,0.00,VWS V14.01,2013-02-11 13:13:00,
2013-02-11 08:15:00,34.4,31.5,30.00,NNE,19,0.0,2.0,89,0.25,,---,0.25,VWS V14.01,2013-02-11 13:15:00,
2013-02-11 08:18:00,33.1,29.7,30.02,ENE,73,3.0,3.0,87,0.01,,---,0.01,VWS V14.01,2013-02-11 13:18:00,
2013-02-11 08:23:00,33.3,29.9,30.02,ENE,70,0.0,3.0,87,0.01,,---,0.01,VWS V14.01,2013-02-11 13:23:00,
2013-02-11 08:28:00,33.4,30.2,30.01,ENE,70,0.0,3.0,88,0.01,,---,0.01,VWS V14.01,2013-02-11 13:28:00,
2013-02-11 08:30:00,35.1,32.2,29.99,NNE,22,0.0,3.0,89,0.24,,---,0.25,VWS V14.01,2013-02-11 13:30:00,
2013-02-11 08:34:00,33.3,30.1,30.02,ENE,70,0.0,3.0,88,0.01,,---,0.01,VWS V14.01,2013-02-11 13:34:00,
2013-02-11 08:39:00,33.5,30.3,30.01,NNW,338,0.0,4.0,88,0.01,,---,0.01,VWS V14.01,2013-02-11 13:39:00,
2013-02-11 08:44:00,33.9,30.7,30.01,NNE,19,0.0,4.0,88,0.01,,---,0.01,VWS V14.01,2013-02-11 13:44:00,
2013-02-11 08:45:00,35.5,32.6,29.98,NNE,22,0.0,3.0,89,0.25,,---,0.26,VWS V14.01,2013-02-11 13:45:00,
2013-02-11 08:49:00,33.9,30.7,30.01,NNE,19,0.0,1.0,88,0.01,,---,0.01,VWS V14.01,2013-02-11 13:49:00,
2013-02-11 08:54:00,34.0,30.8,30.01,NNE,19,0.0,1.0,88,0.01,,---,0.01,VWS V14.01,2013-02-11 13:54:00,
2013-02-11 08:59:00,34.2,31.0,30.00,NNE,19,0.0,1.0,88,0.03,,---,0.03,VWS V14.01,2013-02-11 13:59:00,
2013-02-11 09:00:00,36.1,33.5,29.97,NNE,22,0.0,0.0,90,0.26,,---,0.27,VWS V14.01,2013-02-11 14:00:00,
2013-02-11 09:04:00,34.4,31.5,30.00,NNE,19,0.0,2.0,89,0.03,,---,0.03,VWS V14.01,2013-02-11 14:04:00,
2013-02-11 09:09:00,34.3,31.4,30.00,NNE,19,0.0,2.0,89,0.23,,---,0.23,VWS V14.01,2013-02-11 14:09:00,
2013-02-11 09:15:00,34.4,31.5,30.00,NNE,19,0.0,2.0,89,0.25,,---,0.25,VWS V14.01,2013-02-11 14:15:00,
2013-02-11 09:20:00,34.4,31.5,29.99,NNE,19,0.0,0.0,89,0.24,,---,0.25,VWS V14.01,2013-02-11 14:20:00,
2013-02-11 09:25:00,34.8,31.9,29.99,NNE,19,0.0,0.0,89,0.24,,---,0.25,VWS V14.01,2013-02-11 14:25:00,
2013-02-11 09:30:00,35.1,32.2,29.99,NNE,22,2.0,3.0,89,0.24,,---,0.25,VWS V14.01,2013-02-11 14:30:00,
2013-02-11 09:35:00,35.3,32.4,29.99,NNE,22,0.0,3.0,89,0.24,,---,0.25,VWS V14.01,2013-02-11 14:35:00,
2013-02-11 09:40:00,35.5,32.6,29.98,NNE,22,0.0,3.0,89,0.25,,---,0.26,VWS V14.01,2013-02-11 14:40:00,
2013-02-11 09:45:00,35.5,32.6,29.98,NNE,22,2.0,3.0,89,0.25,,---,0.26,VWS V14.01,2013-02-11 14:45:00,
2013-02-11 09:50:00,35.7,33.1,29.98,NNE,22,0.0,0.0,90,0.25,,---,0.26,VWS V14.01,2013-02-11 14:50:00,
2013-02-11 09:55:00,35.9,33.3,29.97,NNE,22,0.0,0.0,90,0.26,,---,0.27,VWS V14.01,2013-02-11 14:55:00,
2013-02-11 10:00:00,36.0,33.4,29.97,NNE,22,0.0,0.0,90,0.26,,---,0.27,VWS V14.01,2013-02-11 15:00:00,
2013-02-11 10:05:00,36.0,33.4,29.96,NNE,22,0.0,0.0,90,0.24,,---,0.27,VWS V14.01,2013-02-11 15:05:00,
2013-02-11 10:10:00,36.1,33.5,29.96,NNE,22,0.0,2.0,90,0.24,,---,0.27,VWS V14.01,2013-02-11 15:10:00,
2013-02-11 10:15:00,36.3,33.7,29.96,NNE,22,0.0,2.0,90,0.24,,---,0.27,VWS V14.01,2013-02-11 15:15:00,
2013-02-11 10:20:00,36.2,33.6,29.96,NNE,22,0.0,0.0,90,0.02,,---,0.27,VWS V14.01,2013-02-11 15:20:00,
2013-02-11 10:25:00,36.2,33.6,29.96,NNE,22,1.0,1.0,90,0.02,,---,0.27,VWS V14.01,2013-02-11 15:25:00,
2013-02-11 10:30:00,36.8,34.4,29.92,NW,323,0.0,1.0,91,0.03,,---,0.30,VWS V14.01,2013-02-11 15:30:00,
2013-02-11 10:31:00,36.5,33.8,29.95,North,360,0.0,4.0,90,0.03,,---,0.28,VWS V14.01,2013-02-11 15:31:00,
2013-02-11 10:36:00,36.8,34.2,29.96,NW,323,0.0,4.0,90,0.03,,---,0.28,VWS V14.01,2013-02-11 15:36:00,
2013-02-11 10:41:00,36.7,34.3,29.96,NW,323,0.0,4.0,91,0.03,,---,0.28,VWS V14.01,2013-02-11 15:41:00,
2013-02-11 10:45:00,37.0,34.6,29.92,NW,323,1.0,3.0,91,0.02,,---,0.30,VWS V14.01,2013-02-11 15:45:00,
2013-02-11 10:46:00,36.6,34.0,29.95,NW,323,0.0,0.0,90,0.02,,---,0.28,VWS V14.01,2013-02-11 15:46:00,
2013-02-11 10:51:00,36.7,34.3,29.95,NW,323,0.0,0.0,91,0.02,,---,0.28,VWS V14.01,2013-02-11 15:51:00,
2013-02-11 10:56:00,36.8,34.4,29.95,NW,323,0.0,0.0,91,0.02,,---,0.28,VWS V14.01,2013-02-11 15:56:00,
2013-02-11 11:00:00,37.3,34.9,29.90,NW,323,0.0,3.0,91,0.02,,---,0.30,VWS V14.01,2013-02-11 16:00:00,
2013-02-11 11:01:00,36.7,34.3,29.95,NW,323,0.0,0.0,91,0.01,,---,0.28,VWS V14.01,2013-02-11 16:01:00,
2013-02-11 11:06:00,36.7,34.3,29.95,NW,323,0.0,0.0,91,0.01,,---,0.28,VWS V14.01,2013-02-11 16:06:00,
2013-02-11 11:11:00,36.7,34.3,29.94,NW,323,0.0,0.0,91,0.02,,---,0.29,VWS V14.01,2013-02-11 16:11:00,
2013-02-11 11:15:00,37.5,35.4,29.89,NW,323,0.0,1.0,92,0.03,,---,0.31,VWS V14.01,2013-02-11 16:15:00,
2013-02-11 11:16:00,36.8,34.4,29.93,NW,323,0.0,0.0,91,0.02,,---,0.29,VWS V14.01,2013-02-11 16:16:00,
2013-02-11 11:21:00,36.8,34.4,29.93,NW,323,0.0,0.0,91,0.02,,---,0.29,VWS V14.01,2013-02-11 16:21:00,
2013-02-11 11:26:00,36.8,34.4,29.93,NW,323,0.0,1.0,91,0.02,,---,0.29,VWS V14.01,2013-02-11 16:26:00,
2013-02-11 11:30:00,37.6,35.5,29.88,NW,323,1.0,3.0,92,0.02,,---,0.31,VWS V14.01,2013-02-11 16:30:00,
2013-02-11 11:32:00,36.8,34.4,29.92,NW,323,0.0,0.0,91,0.02,,---,0.30,VWS V14.01,2013-02-11 16:32:00,
2013-02-11 11:37:00,36.9,34.5,29.92,NW,323,0.0,0.0,91,0.02,,---,0.30,VWS V14.01,2013-02-11 16:37:00,
2013-02-11 11:42:00,37.0,34.6,29.92,NW,323,0.0,0.0,91,0.02,,---,0.30,VWS V14.01,2013-02-11 16:42:00,
2013-02-11 11:45:00,37.7,35.6,29.86,NW,323,0.0,2.0,92,0.01,,---,0.31,VWS V14.01,2013-02-11 16:45:00,
2013-02-11 11:47:00,37.0,34.6,29.92,NW,323,1.0,3.0,91,0.02,,---,0.30,VWS V14.01,2013-02-11 16:47:00,
2013-02-11 11:52:00,37.0,34.6,29.91,NW,323,0.0,3.0,91,0.02,,---,0.30,VWS V14.01,2013-02-11 16:52:00,
2013-02-11 11:57:00,37.1,34.7,29.90,NW,323,0.0,3.0,91,0.02,,---,0.30,VWS V14.01,2013-02-11 16:57:00,
2013-02-11 12:00:00,37.9,35.8,29.83,NW,323,0.0,2.0,92,0.02,,---,0.32,VWS V14.01,2013-02-11 17:00:00,
2013-02-11 12:02:00,37.3,34.9,29.90,NW,323,0.0,0.0,91,0.02,,---,0.30,VWS V14.01,2013-02-11 17:02:00,
2013-02-11 12:07:00,37.4,35.0,29.90,NW,323,0.0,0.0,91,0.03,,---,0.31,VWS V14.01,2013-02-11 17:07:00,
2013-02-11 12:12:00,37.4,35.0,29.89,NW,323,0.0,1.0,91,0.03,,---,0.31,VWS V14.01,2013-02-11 17:12:00,
2013-02-11 12:15:00,38.6,36.5,29.82,NW,323,0.0,0.0,92,0.02,,---,0.32,VWS V14.01,2013-02-11 17:15:00,
2013-02-11 12:17:00,37.5,35.4,29.88,NW,323,0.0,0.0,92,0.02,,---,0.31,VWS V14.01,2013-02-11 17:17:00,
2013-02-11 12:22:00,37.6,35.5,29.88,NW,323,0.0,0.0,92,0.02,,---,0.31,VWS V14.01,2013-02-11 17:22:00,
2013-02-11 12:27:00,37.6,35.5,29.88,NW,323,2.0,3.0,92,0.02,,---,0.31,VWS V14.01,2013-02-11 17:27:00,
2013-02-11 12:30:00,38.9,36.8,29.82,NW,323,0.0,0.0,92,0.01,,---,0.32,VWS V14.01,2013-02-11 17:30:00,
2013-02-11 12:33:00,37.6,35.5,29.87,NW,323,0.0,2.0,92,0.01,,---,0.31,VWS V14.01,2013-02-11 17:33:00,
2013-02-11 12:38:00,37.5,35.4,29.87,NW,323,0.0,2.0,92,0.01,,---,0.31,VWS V14.01,2013-02-11 17:38:00,
2013-02-11 12:43:00,37.6,35.5,29.86,NW,323,0.0,2.0,92,0.01,,---,0.31,VWS V14.01,2013-02-11 17:43:00,
2013-02-11 12:45:00,39.1,37.0,29.81,NW,323,0.0,3.0,92,0.01,,---,0.32,VWS V14.01,2013-02-11 17:45:00,
2013-02-11 12:48:00,37.7,35.6,29.85,NW,323,0.0,0.0,92,0.01,,---,0.31,VWS V14.01,2013-02-11 17:48:00,
2013-02-11 12:53:00,37.7,35.6,29.85,NW,323,1.0,2.0,92,0.01,,---,0.31,VWS V14.01,2013-02-11 17:53:00,
2013-02-11 12:58:00,37.8,35.7,29.84,NW,323,0.0,2.0,92,0.02,,---,0.32,VWS V14.01,2013-02-11 17:58:00,
2013-02-11 13:00:00,39.3,37.2,29.80,NW,323,0.0,3.0,92,0.01,,---,0.32,VWS V14.01,2013-02-11 18:00:00,
2013-02-11 13:03:00,38.0,35.9,29.83,NW,323,0.0,0.0,92,0.02,,---,0.32,VWS V14.01,2013-02-11 18:03:00,
2013-02-11 13:08:00,38.3,36.2,29.83,NW,323,0.0,0.0,92,0.02,,---,0.32,VWS V14.01,2013-02-11 18:08:00,
2013-02-11 13:13:00,38.5,36.4,29.82,NW,323,0.0,0.0,92,0.02,,---,0.32,VWS V14.01,2013-02-11 18:13:00,
2013-02-11 13:15:00,39.3,37.2,29.80,NW,323,0.0,4.0,92,0.01,,---,0.33,VWS V14.01,2013-02-11 18:15:00,
2013-02-11 13:18:00,38.7,36.6,29.82,NW,323,0.0,0.0,92,0.01,,---,0.32,VWS V14.01,2013-02-11 18:18:00,
2013-02-11 13:23:00,38.8,36.7,29.82,NW,323,0.0,0.0,92,0.01,,---,0.32,VWS V14.01,2013-02-11 18:23:00,
2013-02-11 13:28:00,38.9,36.8,29.82,NW,323,0.0,0.0,92,0.01,,---,0.32,VWS V14.01,2013-02-11 18:28:00,
2013-02-11 13:30:00,39.7,37.6,29.79,NW,323,1.0,1.0,92,0.01,,---,0.33,VWS V14.01,2013-02-11 18:30:00,
2013-02-11 13:33:00,38.9,36.8,29.81,NW,323,0.0,0.0,92,0.01,,---,0.32,VWS V14.01,2013-02-11 18:33:00,
2013-02-11 13:39:00,39.0,36.9,29.81,NW,323,0.0,0.0,92,0.01,,---,0.32,VWS V14.01,2013-02-11 18:39:00,
2013-02-11 13:44:00,39.1,37.0,29.81,NW,323,0.0,0.0,92,0.01,,---,0.32,VWS V14.01,2013-02-11 18:44:00,
2013-02-11 13:45:00,39.5,37.4,29.79,NW,320,2.0,4.0,92,0.01,,---,0.33,VWS V14.01,2013-02-11 18:45:00,
2013-02-11 13:49:00,39.2,37.1,29.80,NW,323,0.0,3.0,92,0.01,,---,0.32,VWS V14.01,2013-02-11 18:49:00,
2013-02-11 13:54:00,39.3,37.2,29.80,NW,323,0.0,3.0,92,0.01,,---,0.32,VWS V14.01,2013-02-11 18:54:00,
2013-02-11 13:59:00,39.3,37.2,29.80,NW,323,0.0,3.0,92,0.01,,---,0.32,VWS V14.01,2013-02-11 18:59:00,
2013-02-11 14:00:00,39.6,37.5,29.77,NW,309,0.0,4.0,92,0.01,,---,0.33,VWS V14.01,2013-02-11 19:00:00,
2013-02-11 14:04:00,39.3,37.2,29.80,NW,323,0.0,3.0,92,0.00,,---,0.32,VWS V14.01,2013-02-11 19:04:00,
2013-02-11 14:09:00,39.2,37.1,29.80,NW,323,0.0,4.0,92,0.00,,---,0.32,VWS V14.01,2013-02-11 19:09:00,
2013-02-11 14:14:00,39.3,37.2,29.80,NW,323,2.0,4.0,92,0.01,,---,0.33,VWS V14.01,2013-02-11 19:14:00,
2013-02-11 14:15:00,39.7,37.8,29.76,SW,227,1.0,4.0,93,0.01,,---,0.33,VWS V14.01,2013-02-11 19:15:00,
2013-02-11 14:19:00,39.5,37.4,29.79,NW,323,0.0,0.0,92,0.01,,---,0.33,VWS V14.01,2013-02-11 19:19:00,
2013-02-11 14:24:00,39.6,37.5,29.79,NW,323,0.0,0.0,92,0.01,,---,0.33,VWS V14.01,2013-02-11 19:24:00,
2013-02-11 14:29:00,39.7,37.6,29.78,NW,323,0.0,1.0,92,0.01,,---,0.33,VWS V14.01,2013-02-11 19:29:00,
2013-02-11 14:30:00,39.7,37.8,29.75,SW,227,0.0,2.0,93,0.00,,---,0.33,VWS V14.01,2013-02-11 19:30:00,
2013-02-11 14:34:00,39.6,37.5,29.79,NW,323,1.0,4.0,92,0.01,,---,0.33,VWS V14.01,2013-02-11 19:34:00,
2013-02-11 14:40:00,39.6,37.5,29.79,NW,320,0.0,4.0,92,0.01,,---,0.33,VWS V14.01,2013-02-11 19:40:00,
2013-02-11 14:45:00,39.6,37.5,29.79,NW,320,1.0,4.0,92,0.01,,---,0.33,VWS V14.01,2013-02-11 19:45:00,
2013-02-11 14:50:00,39.5,37.4,29.78,NW,320,0.0,2.0,92,0.01,,---,0.33,VWS V14.01,2013-02-11 19:50:00,
2013-02-11 14:55:00,39.6,37.5,29.77,NW,320,0.0,3.0,92,0.01,,---,0.33,VWS V14.01,2013-02-11 19:55:00,
2013-02-11 15:00:00,39.6,37.5,29.77,NW,313,3.0,4.0,92,0.01,,---,0.33,VWS V14.01,2013-02-11 20:00:00,
2013-02-11 15:05:00,39.6,37.5,29.76,SW,218,0.0,4.0,92,0.01,,---,0.33,VWS V14.01,2013-02-11 20:05:00,
2013-02-11 15:10:00,39.7,37.8,29.76,SW,222,0.0,4.0,93,0.01,,---,0.33,VWS V14.01,2013-02-11 20:10:00,
2013-02-11 15:15:00,39.7,37.8,29.76,SW,227,1.0,4.0,93,0.01,,---,0.33,VWS V14.01,2013-02-11 20:15:00,
2013-02-11 15:20:00,39.7,37.8,29.76,SW,227,0.0,2.0,93,0.00,,---,0.33,VWS V14.01,2013-02-11 20:20:00,
2013-02-11 15:25:00,39.7,37.8,29.76,SW,227,0.0,2.0,93,0.00,,---,0.33,VWS V14.01,2013-02-11 20:25:00,
2013-02-11 15:30:00,39.7,37.8,29.75,SW,227,0.0,2.0,93,0.00,,---,0.33,VWS V14.01,2013-02-11 20:30:00,
2013-02-11 15:35:00,39.7,37.8,29.74,SW,227,0.0,0.0,93,0.00,,---,0.33,VWS V14.01,2013-02-11 20:35:00,
2013-02-11 15:40:00,39.8,38.0,29.74,SW,227,0.0,0.0,93,0.00,,---,0.33,VWS V14.01,2013-02-11 20:40:00,
2013-02-11 15:45:00,39.8,38.0,29.73,SW,227,0.0,0.0,93,0.00,,---,0.33,VWS V14.01,2013-02-11 20:45:00,
2013-02-11 15:50:00,39.9,38.0,29.73,SW,227,0.0,0.0,93,0.00,,---,0.33,VWS V14.01,2013-02-11 20:50:00,
2013-02-11 15:55:00,39.9,38.0,29.73,SW,227,0.0,0.0,93,0.00,,---,0.33,VWS V14.01,2013-02-11 20:55:00,
2013-02-11 16:00:00,39.9,38.0,29.73,SW,227,0.0,0.0,93,0.00,,---,0.33,VWS V14.01,2013-02-11 21:00:00,
2013-02-11 16:05:00,40.0,38.1,29.72,SW,227,0.0,0.0,93,0.00,,---,0.33,VWS V14.01,2013-02-11 21:05:00,
2013-02-11 16:11:00,39.8,38.0,29.73,SW,227,0.0,2.0,93,0.00,,---,0.33,VWS V14.01,2013-02-11 21:11:00,
2013-02-11 16:15:00,39.7,37.8,29.69,SW,227,0.0,0.0,93,0.00,,---,0.33,VWS V14.01,2013-02-11 21:15:00,
2013-02-11 16:16:00,39.8,38.0,29.72,SW,227,0.0,2.0,93,0.00,,---,0.33,VWS V14.01,2013-02-11 21:16:00,
2013-02-11 16:21:00,39.9,38.0,29.72,SW,227,0.0,0.0,93,0.00,,---,0.33,VWS V14.01,2013-02-11 21:21:00,
2013-02-11 16:26:00,39.8,38.0,29.72,SW,227,0.0,0.0,93,0.00,,---,0.33,VWS V14.01,2013-02-11 21:26:00,
2013-02-11 16:30:00,40.4,38.5,29.69,SW,228,0.0,3.0,93,0.00,,---,0.33,VWS V14.01,2013-02-11 21:30:00,
2013-02-11 16:31:00,39.8,38.0,29.72,SW,227,0.0,0.0,93,0.00,,---,0.33,VWS V14.01,2013-02-11 21:31:00,
2013-02-11 16:36:00,39.8,38.0,29.72,SW,227,0.0,1.0,93,0.00,,---,0.33,VWS V14.01,2013-02-11 21:36:00,
2013-02-11 16:41:00,39.8,38.0,29.72,SW,227,0.0,1.0,93,0.00,,---,0.33,VWS V14.01,2013-02-11 21:41:00,
2013-02-11 16:45:00,40.4,38.5,29.68,SW,228,0.0,0.0,93,0.00,,---,0.33,VWS V14.01,2013-02-11 21:45:00,
2013-02-11 16:46:00,39.8,38.0,29.71,SW,227,0.0,0.0,93,0.00,,---,0.33,VWS V14.01,2013-02-11 21:46:00,
2013-02-11 16:51:00,39.9,38.0,29.71,SW,227,0.0,0.0,93,0.00,,---,0.33,VWS V14.01,2013-02-11 21:51:00,
2013-02-11 16:56:00,39.9,38.0,29.71,SW,227,0.0,0.0,93,0.00,,---,0.33,VWS V14.01,2013-02-11 21:56:00,
2013-02-11 17:00:00,40.3,38.4,29.68,SW,229,0.0,1.0,93,0.00,,---,0.33,VWS V14.01,2013-02-11 22:00:00,
2013-02-11 17:01:00,39.7,37.8,29.70,SW,227,0.0,0.0,93,0.00,,---,0.33,VWS V14.01,2013-02-11 22:01:00,
2013-02-11 17:06:00,39.8,38.0,29.70,SW,227,0.0,0.0,93,0.00,,---,0.33,VWS V14.01,2013-02-11 22:06:00,
2013-02-11 17:12:00,39.8,38.0,29.70,SW,227,0.0,0.0,93,0.00,,---,0.33,VWS V14.01,2013-02-11 22:12:00,
2013-02-11 17:15:00,39.9,38.0,29.68,SW,229,0.0,3.0,93,0.00,,---,0.33,VWS V14.01,2013-02-11 22:15:00,
2013-02-11 17:17:00,39.8,38.0,29.69,SW,227,0.0,0.0,93,0.00,,---,0.33,VWS V14.01,2013-02-11 22:17:00,
2013-02-11 17:22:00,39.8,38.0,29.69,SW,227,0.0,1.0,93,0.00,,---,0.33,VWS V14.01,2013-02-11 22:22:00,
2013-02-11 17:27:00,40.2,38.3,29.69,SW,228,0.0,3.0,93,0.00,,---,0.33,VWS V14.01,2013-02-11 22:27:00,
2013-02-11 17:30:00,39.8,37.9,29.67,SW,229,0.0,0.0,93,0.00,,---,0.33,VWS V14.01,2013-02-11 22:30:00,
2013-02-11 17:32:00,40.4,38.5,29.69,SW,228,0.0,0.0,93,0.00,,---,0.33,VWS V14.01,2013-02-11 22:32:00,
2013-02-11 17:37:00,40.3,38.4,29.69,SW,228,0.0,0.0,93,0.00,,---,0.33,VWS V14.01,2013-02-11 22:37:00,
2013-02-11 17:42:00,40.4,38.5,29.68,SW,228,0.0,0.0,93,0.00,,---,0.33,VWS V14.01,2013-02-11 22:42:00,
2013-02-11 17:45:00,39.7,37.8,29.67,SW,229,0.0,0.0,93,0.00,,---,0.33,VWS V14.01,2013-02-11 22:45:00,
2013-02-11 17:47:00,40.5,38.6,29.68,SW,228,0.0,0.0,93,0.00,,---,0.33,VWS V14.01,2013-02-11 22:47:00,
2013-02-11 17:52:00,40.4,38.5,29.68,SW,228,0.0,0.0,93,0.00,,---,0.33,VWS V14.01,2013-02-11 22:52:00,
2013-02-11 17:57:00,40.4,38.5,29.68,SW,228,0.0,0.0,93,0.00,,---,0.33,VWS V14.01,2013-02-11 22:57:00,
2013-02-11 18:00:00,39.3,37.5,29.66,SW,229,0.0,0.0,93,0.00,,---,0.33,VWS V14.01,2013-02-11 23:00:00,
2013-02-11 18:02:00,40.3,38.4,29.68,SW,229,2.0,2.0,93,0.00,,---,0.33,VWS V14.01,2013-02-11 23:02:00,
2013-02-11 18:07:00,40.1,38.2,29.68,SW,229,0.0,3.0,93,0.00,,---,0.33,VWS V14.01,2013-02-11 23:07:00,
2013-02-11 18:12:00,40.0,38.1,29.68,SW,229,0.0,3.0,93,0.00,,---,0.33,VWS V14.01,2013-02-11 23:12:00,
2013-02-11 18:15:00,39.5,37.7,29.66,SW,229,0.0,0.0,93,0.00,,---,0.33,VWS V14.01,2013-02-11 23:15:00,
2013-02-11 18:17:00,39.9,38.0,29.68,SW,229,0.0,0.0,93,0.00,,---,0.33,VWS V14.01,2013-02-11 23:17:00,
2013-02-11 18:22:00,39.9,38.0,29.67,SW,229,0.0,0.0,93,0.00,,---,0.33,VWS V14.01,2013-02-11 23:22:00,
2013-02-11 18:27:00,39.8,38.0,29.67,SW,229,0.0,0.0,93,0.00,,---,0.33,VWS V14.01,2013-02-11 23:27:00,
2013-02-11 18:30:00,39.8,37.9,29.66,SW,229,0.0,0.0,93,0.00,,---,0.33,VWS V14.01,2013-02-11 23:30:00,
2013-02-11 18:33:00,39.8,38.0,29.67,SW,229,0.0,0.0,93,0.00,,---,0.33,VWS V14.01,2013-02-11 23:33:00,
2013-02-11 18:38:00,39.7,37.8,29.67,SW,229,0.0,0.0,93,0.00,,---,0.33,VWS V14.01,2013-02-11 23:38:00,
2013-02-11 18:43:00,39.7,37.8,29.66,SW,229,0.0,0.0,93,0.00,,---,0.33,VWS V14.01,2013-02-11 23:43:00,
2013-02-11 18:45:00,39.6,37.8,29.65,SW,229,0.0,0.0,93,0.00,,---,0.33,VWS V14.01,2013-02-11 23:45:00,
2013-02-11 18:48:00,39.7,37.8,29.66,SW,229,0.0,0.0,93,0.00,,---,0.33,VWS V14.01,2013-02-11 23:48:00,
2013-02-11 18:53:00,39.6,37.8,29.66,SW,229,0.0,0.0,93,0.00,,---,0.33,VWS V14.01,2013-02-11 23:53:00,
2013-02-11 18:58:00,39.3,37.5,29.66,SW,229,0.0,0.0,93,0.00,,---,0.33,VWS V14.01,2013-02-11 23:58:00,
2013-02-11 19:00:00,39.6,37.8,29.65,SW,229,0.0,0.0,93,0.00,,---,0.33,VWS V14.01,2013-02-12 00:00:00,
2013-02-11 19:03:00,39.3,37.5,29.66,SW,229,0.0,0.0,93,0.00,,---,0.33,VWS V14.01,2013-02-12 00:03:00,
2013-02-11 19:08:00,39.3,37.5,29.66,SW,229,0.0,0.0,93,0.00,,---,0.33,VWS V14.01,2013-02-12 00:08:00,
2013-02-11 19:13:00,39.4,37.5,29.66,SW,229,0.0,0.0,93,0.00,,---,0.33,VWS V14.01,2013-02-12 00:13:00,
2013-02-11 19:15:00,38.6,36.8,29.65,SW,229,0.0,0.0,93,0.00,,---,0.33,VWS V14.01,2013-02-12 00:15:00,
2013-02-11 19:18:00,39.5,37.7,29.66,SW,229,0.0,0.0,93,0.00,,---,0.33,VWS V14.01,2013-02-12 00:18:00,
2013-02-11 19:23:00,39.6,37.8,29.66,SW,229,0.0,0.0,93,0.00,,---,0.33,VWS V14.01,2013-02-12 00:23:00,
2013-02-11 19:28:00,39.7,37.8,29.66,SW,229,0.0,0.0,93,0.00,,---,0.33,VWS V14.01,2013-02-12 00:28:00,
2013-02-11 19:30:00,38.4,36.6,29.65,SW,229,0.0,0.0,93,0.00,,---,0.33,VWS V14.01,2013-02-12 00:30:00,
2013-02-11 19:34:00,39.8,38.0,29.66,SW,229,0.0,0.0,93,0.00,,---,0.33,VWS V14.01,2013-02-12 00:34:00,
2013-02-11 19:39:00,39.7,37.8,29.65,SW,229,0.0,0.0,93,0.00,,---,0.33,VWS V14.01,2013-02-12 00:39:00,
2013-02-11 19:44:00,39.6,37.8,29.65,SW,229,0.0,0.0,93,0.00,,---,0.33,VWS V14.01,2013-02-12 00:44:00,
2013-02-11 19:45:00,38.8,37.0,29.65,SW,229,0.0,0.0,93,0.00,,---,0.33,VWS V14.01,2013-02-12 00:45:00,
2013-02-11 19:49:00,39.8,38.0,29.65,SW,229,0.0,0.0,93,0.00,,---,0.33,VWS V14.01,2013-02-12 00:49:00,
2013-02-11 19:54:00,39.7,37.8,29.65,SW,229,0.0,0.0,93,0.00,,---,0.33,VWS V14.01,2013-02-12 00:54:00,
2013-02-11 19:59:00,39.7,37.8,29.65,SW,229,0.0,0.0,93,0.00,,---,0.33,VWS V14.01,2013-02-12 00:59:00,
2013-02-11 20:00:00,38.7,36.8,29.66,SW,229,0.0,0.0,93,0.00,,---,0.33,VWS V14.01,2013-02-12 01:00:00,
2013-02-11 20:04:00,39.4,37.5,29.65,SW,229,0.0,0.0,93,0.00,,---,0.33,VWS V14.01,2013-02-12 01:04:00,
2013-02-11 20:09:00,38.8,37.0,29.65,SW,229,0.0,0.0,93,0.00,,---,0.33,VWS V14.01,2013-02-12 01:09:00,
2013-02-11 20:14:00,38.6,36.8,29.65,SW,229,0.0,0.0,93,0.00,,---,0.33,VWS V14.01,2013-02-12 01:14:00,
2013-02-11 20:15:00,38.9,37.3,29.66,SW,229,0.0,0.0,94,0.00,,---,0.33,VWS V14.01,2013-02-12 01:15:00,
2013-02-11 20:19:00,38.5,36.7,29.65,SW,229,0.0,0.0,93,0.00,,---,0.33,VWS V14.01,2013-02-12 01:19:00,
2013-02-11 20:24:00,38.5,36.7,29.65,SW,229,0.0,0.0,93,0.00,,---,0.33,VWS V14.01,2013-02-12 01:24:00,
2013-02-11 20:29:00,38.4,36.6,29.65,SW,229,0.0,0.0,93,0.00,,---,0.33,VWS V14.01,2013-02-12 01:29:00,
2013-02-11 20:30:00,38.4,36.8,29.66,SW,229,0.0,0.0,94,0.00,,---,0.33,VWS V14.01,2013-02-12 01:30:00,
2013-02-11 20:34:00,38.5,36.7,29.65,SW,229,0.0,0.0,93,0.00,,---,0.33,VWS V14.01,2013-02-12 01:34:00,
2013-02-11 20:40:00,38.7,36.8,29.66,SW,229,0.0,0.0,93,0.00,,---,0.33,VWS V14.01,2013-02-12 01:40:00,
2013-02-11 20:45:00,38.8,37.0,29.66,SW,229,0.0,0.0,93,0.00,,---,0.33,VWS V14.01,2013-02-12 01:45:00,
2013-02-11 20:50:00,38.9,37.3,29.65,SW,229,0.0,0.0,94,0.00,,---,0.33,VWS V14.01,2013-02-12 01:50:00,
2013-02-11 20:55:00,39.0,37.4,29.65,SW,229,0.0,0.0,94,0.00,,---,0.33,VWS V14.01,2013-02-12 01:55:00,
2013-02-11 21:00:00,38.8,37.0,29.66,SW,229,0.0,0.0,93,0.00,,---,0.33,VWS V14.01,2013-02-12 02:00:00,
2013-02-11 21:05:00,38.7,36.8,29.66,SW,229,0.0,0.0,93,0.00,,---,0.33,VWS V14.01,2013-02-12 02:05:00,
2013-02-11 21:10:00,39.0,37.4,29.65,SW,229,0.0,0.0,94,0.00,,---,0.33,VWS V14.01,2013-02-12 02:10:00,
2013-02-11 21:15:00,38.9,37.3,29.66,SW,229,0.0,0.0,94,0.00,,---,0.33,VWS V14.01,2013-02-12 02:15:00,
2013-02-11 21:20:00,38.8,37.0,29.66,SW,229,0.0,0.0,93,0.00,,---,0.33,VWS V14.01,2013-02-12 02:20:00,
2013-02-11 21:25:00,38.7,36.8,29.66,SW,229,0.0,0.0,93,0.00,,---,0.33,VWS V14.01,2013-02-12 02:25:00,
2013-02-11 21:30:00,38.4,36.6,29.66,SW,229,0.0,0.0,93,0.00,,---,0.33,VWS V14.01,2013-02-12 02:30:00,
2013-02-11 21:35:00,38.9,37.0,29.67,WNW,302,4.0,4.0,93,0.00,,---,0.33,VWS V14.01,2013-02-12 02:35:00,
2013-02-11 21:40:00,39.3,37.7,29.68,NNW,346,2.0,7.0,94,0.00,,---,0.33,VWS V14.01,2013-02-12 02:40:00,
2013-02-11 21:45:00,39.8,38.2,29.68,NNW,346,3.0,7.0,94,0.00,,---,0.33,VWS V14.01,2013-02-12 02:45:00,
2013-02-11 21:50:00,39.6,38.0,29.69,NNW,346,3.0,4.0,94,0.00,,---,0.33,VWS V14.01,2013-02-12 02:50:00,
2013-02-11 21:55:00,39.7,38.1,29.69,NNW,346,0.0,4.0,94,0.00,,---,0.33,VWS V14.01,2013-02-12 02:55:00,
2013-02-11 22:00:00,43.1,41.5,29.71,NW,310,6.0,12.0,94,0.01,,---,0.34,VWS V14.01,2013-02-12 03:00:00,
2013-02-11 22:01:00,39.9,38.3,29.69,NNW,346,0.0,4.0,94,0.00,,---,0.33,VWS V14.01,2013-02-12 03:01:00,
2013-02-11 22:06:00,40.1,38.5,29.69,NNW,346,0.0,3.0,94,0.00,,---,0.33,VWS V14.01,2013-02-12 03:06:00,
2013-02-11 22:11:00,40.5,38.9,29.69,NNW,346,3.0,3.0,94,0.00,,---,0.33,VWS V14.01,2013-02-12 03:11:00,
2013-02-11 22:15:00,42.6,41.0,29.71,NW,316,1.0,6.0,94,0.01,,---,0.34,VWS V14.01,2013-02-12 03:15:00,
2013-02-11 22:16:00,41.1,39.5,29.69,NNW,346,0.0,3.0,94,0.00,,---,0.33,VWS V14.01,2013-02-12 03:16:00,
2013-02-11 22:21:00,41.3,39.7,29.69,NNW,332,5.0,8.0,94,0.00,,---,0.33,VWS V14.01,2013-02-12 03:21:00,
2013-02-11 22:26:00,42.2,40.6,29.69,NNW,327,7.0,11.0,94,0.00,,---,0.33,VWS V14.01,2013-02-12 03:26:00,
2013-02-11 22:30:00,41.9,40.3,29.72,NW,315,0.0,4.0,94,0.01,,---,0.34,VWS V14.01,2013-02-12 03:30:00,
2013-02-11 22:31:00,42.7,41.1,29.70,NW,317,7.0,8.0,94,0.01,,---,0.34,VWS V14.01,2013-02-12 03:31:00,
2013-02-11 22:36:00,43.1,41.5,29.70,NW,314,5.0,8.0,94,0.01,,---,0.34,VWS V14.01,2013-02-12 03:36:00,
2013-02-11 22:41:00,43.2,41.6,29.71,NNW,328,8.0,12.0,94,0.01,,---,0.34,VWS V14.01,2013-02-12 03:41:00,
2013-02-11 22:45:00,41.1,39.5,29.72,NW,315,0.0,0.0,94,0.00,,---,0.34,VWS V14.01,2013-02-12 03:45:00,
2013-02-11 22:46:00,43.1,41.5,29.71,WNW,300,9.0,9.0,94,0.01,,---,0.34,VWS V14.01,2013-02-12 03:46:00,
2013-02-11 22:51:00,43.1,41.5,29.71,NW,319,5.0,12.0,94,0.01,,---,0.34,VWS V14.01,2013-02-12 03:51:00,
2013-02-11 22:56:00,43.1,41.5,29.71,NW,311,6.0,12.0,94,0.01,,---,0.34,VWS V14.01,2013-02-12 03:56:00,
2013-02-11 23:00:00,40.0,38.4,29.73,NW,315,2.0,2.0,94,0.00,,---,0.00,VWS V14.01,2013-02-12 04:00:00,
2013-02-11 23:01:00,43.1,41.5,29.71,NW,311,5.0,6.0,94,0.01,,---,0.34,VWS V14.01,2013-02-12 04:01:00,
2013-02-11 23:06:00,42.8,41.2,29.70,NW,308,3.0,6.0,94,0.01,,---,0.34,VWS V14.01,2013-02-12 04:06:00,
2013-02-11 23:11:00,42.7,41.1,29.71,NW,316,3.0,6.0,94,0.01,,---,0.34,VWS V14.01,2013-02-12 04:11:00,
2013-02-11 23:15:00,40.0,38.4,29.74,WSW,254,0.0,5.0,94,0.00,,---,0.00,VWS V14.01,2013-02-12 04:15:00,
2013-02-11 23:16:00,42.5,40.9,29.71,NW,316,3.0,3.0,94,0.01,,---,0.34,VWS V14.01,2013-02-12 04:16:00,
2013-02-11 23:21:00,42.3,40.7,29.71,NW,316,3.0,4.0,94,0.01,,---,0.34,VWS V14.01,2013-02-12 04:21:00,
2013-02-11 23:26:00,42.1,40.5,29.71,NW,315,2.0,4.0,94,0.01,,---,0.34,VWS V14.01,2013-02-12 04:26:00,
2013-02-11 23:30:00,39.5,37.9,29.73,WSW,256,3.0,5.0,94,0.00,,---,0.00,VWS V14.01,2013-02-12 04:30:00,
2013-02-11 23:31:00,41.9,40.3,29.72,NW,315,0.0,0.0,94,0.00,,---,0.34,VWS V14.01,2013-02-12 04:31:00,
2013-02-11 23:36:00,41.4,39.8,29.72,NW,315,0.0,0.0,94,0.00,,---,0.34,VWS V14.01,2013-02-12 04:36:00,
2013-02-11 23:41:00,41.2,39.6,29.72,NW,315,0.0,0.0,94,0.00,,---,0.34,VWS V14.01,2013-02-12 04:41:00,
2013-02-11 23:45:00,39.3,37.7,29.74,West,268,4.0,6.0,94,0.00,,---,0.00,VWS V14.01,2013-02-12 04:45:00,
2013-02-11 23:46:00,41.0,39.4,29.72,NW,315,0.0,0.0,94,0.00,,---,0.34,VWS V14.01,2013-02-12 04:46:00,
2013-02-11 23:51:00,40.5,38.9,29.73,NW,315,0.0,0.0,94,0.00,,---,0.34,VWS V14.01,2013-02-12 04:51:00,
2013-02-11 23:57:00,40.2,38.6,29.73,NW,315,0.0,2.0,94,0.00,,---,0.34,VWS V14.01,2013-02-12 04:57:00,